Theta_e
309 309 309 309 309 309 308 308 308 309 307 304 303 304 304 304 308 310 307 303 310 305 310 308 308 309 307 309 315 317 324 327 325 326 325 325 326 324 323 324 322 324 324 323 342
309 309 309 309 309 310 309 308 307 308 306 304 304 304 305 307 313 310 313 303 309 311 307 306 307 308 305 309 312 318 319 320 324 325 326 325 324 322 322 321 321 323 321 323 337
307 307 307 307 307 308 308 309 307 305 304 302 304 304 305 312 311 310 311 307 308 308 308 307 309 309 308 308 311 313 318 319 321 321 320 320 319 319 320 321 321 319 320 320 322
310 310 310 309 308 309 309 306 306 304 301 302 305 304 307 313 310 312 311 308 309 310 311 310 309 308 308 308 308 311 311 315 316 316 314 316 316 316 316 317 318 318 318 319 320
310 311 310 310 310 309 309 309 304 301 301 303 305 306 311 314 315 314 311 309 309 311 312 312 310 307 308 307 308 309 310 310 310 310 311 311 313 313 314 315 316 316 316 317 317
310 310 310 309 310 309 308 306 303 301 301 303 306 307 312 308 313 312 313 310 310 314 312 312 309 307 308 309 308 308 308 308 308 309 310 311 312 312 314 315 315 316 315 315 316
310 310 309 309 310 309 307 303 302 301 301 303 306 311 311 305 313 313 312 311 311 312 312 312 310 309 307 308 307 308 308 306 307 309 310 310 311 312 313 314 315 314 314 313 313
310 309 309 310 308 308 305 302 302 301 302 304 309 313 308 311 314 311 310 309 309 310 310 311 310 308 309 307 306 307 305 305 306 309 310 311 312 313 310 311 312 312 312 311 311
308 307 307 308 306 305 303 305 309 310 310 308 312 312 314 314 312 310 309 307 308 308 309 309 308 306 306 307 305 305 308 308 308 308 308 310 310 310 310 310 311 311 311 311 310
306 306 306 306 305 304 307 311 312 312 312 313 313 312 312 314 312 310 309 308 307 307 306 306 303 305 303 305 307 308 309 308 308 308 308 308 308 309 309 309 310 310 310 310 311
304 304 306 306 304 306 309 309 304 305 315 308 313 313 313 313 311 309 309 308 307 305 306 304 305 306 307 305 307 308 309 308 307 308 309 309 309 309 308 308 308 308 309 309 310
304 305 306 305 305 308 309 308 309 308 307 307 307 311 312 312 310 309 309 308 307 306 305 304 305 305 306 306 306 307 307 308 309 309 310 308 308 308 308 308 308 308 308 308 309
304 305 306 305 306 308 309 310 309 308 307 308 309 309 309 310 310 309 308 307 307 306 306 305 306 306 307 307 309 308 309 310 311 310 308 308 306 305 308 308 308 308 308 307 308
305 306 306 306 308 309 309 311 310 309 308 312 309 310 310 307 308 309 308 308 306 306 305 305 306 307 307 307 309 310 310 310 309 308 308 308 307 305 306 307 307 307 305 305 305
306 306 307 308 311 309 311 311 310 309 310 312 309 309 307 307 308 309 308 306 306 306 306 307 307 307 307 309 310 308 310 309 309 308 308 308 307 306 306 306 306 306 306 306 309
307 308 306 311 309 310 311 310 311 310 313 310 308 308 308 308 308 308 308 306 306 306 306 305 305 307 309 310 310 308 308 305 305 306 308 306 307 306 305 306 307 307 307 309 312
309 311 307 307 308 310 311 308 312 312 309 309 308 307 308 309 309 309 308 309 307 309 308 308 308 311 309 308 307 306 305 305 306 306 308 307 307 307 307 307 307 309 311 311 310
311 312 309 309 313 312 309 309 316 311 308 308 308 307 310 309 309 309 308 310 309 308 309 309 309 310 310 309 308 308 305 306 310 311 306 307 309 307 306 306 308 312 312 311 310
312 313 314 313 312 309 307 311 310 308 308 308 308 311 310 310 309 308 308 309 310 308 310 310 311 310 309 309 307 307 307 305 307 307 308 308 307 307 308 308 310 311 311 311 308
312 312 312 312 309 309 308 314 313 312 310 308 310 310 311 310 310 309 308 310 311 310 308 309 311 310 310 309 307 306 305 309 306 313 314 310 308 309 308 307 308 310 310 310 308
310 309 311 310 308 307 309 311 314 311 310 309 309 309 309 310 308 308 309 308 310 311 307 308 309 311 310 309 307 308 308 309 307 307 310 311 309 307 309 308 309 309 309 309 308
305 309 311 309 307 302 308 310 310 309 310 309 308 308 309 308 309 308 308 309 310 310 311 309 308 312 311 308 307 306 307 308 305 307 307 308 313 309 307 307 308 309 311 311 310
305 305 310 307 308 306 304 307 308 309 311 310 309 308 308 308 308 308 309 310 308 309 310 310 309 313 311 307 306 309 309 309 308 310 315 314 311 309 308 308 309 311 311 310 314
302 306 302 300 301 305 306 307 309 309 309 307 308 308 308 308 306 308 310 310 308 310 312 312 309 312 313 309 305 309 310 310 312 316 313 313 312 311 311 311 310 311 310 311 313
298 303 300 301 301 303 304 306 309 308 307 306 307 307 307 307 307 307 307 307 307 308 308 310 312 311 311 311 311 311 312 312 313 313 315 314 313 312 312 312 312 310 311 311 311
301 301 299 300 301 303 304 305 306 307 307 307 306 306 305 305 306 307 306 307 306 307 309 308 312 311 312 312 312 314 312 312 313 314 314 313 313 312 312 310 311 310 310 310 310
301 300 301 300 301 303 301 305 306 304 305 305 304 304 304 304 304 303 303 304 305 306 308 308 311 311 312 309 310 312 311 311 311 312 313 315 313 311 312 312 312 309 309 309 310
Wind_Speed
18 19 18 19 19 18 17 16 15 14 13 14 15 17 18 19 21 14 7 6 3 7 5 8 5 1 4 1 2 3 2 5 13 4 4 3 4 4 4 5 5 3 3 7 8
19 19 19 19 19 19 18 17 15 14 13 14 16 17 17 16 13 9 4 5 5 3 3 4 3 1 2 3 3 4 3 8 2 4 7 9 2 6 4 12 3 3 6 10 6
19 19 19 19 20 20 19 18 16 14 13 13 15 15 13 12 3 4 2 5 3 2 2 1 2 2 1 2 3 3 3 3 1 0 5 6 3 5 4 12 3 9 12 11 3
21 22 21 21 21 20 19 18 16 14 12 12 13 12 11 3 2 2 2 3 3 1 1 2 2 3 3 4 3 2 4 3 2 4 5 5 6 9 10 10 7 7 8 6 9
23 23 23 23 22 21 19 18 16 12 9 10 11 11 4 2 7 2 2 4 4 3 2 2 2 4 3 1 3 3 1 3 3 5 7 9 12 16 18 8 10 8 9 10 9
25 24 24 24 23 21 20 17 13 10 8 7 7 6 2 3 2 3 4 6 7 6 3 4 4 5 4 2 2 1 3 6 6 6 4 6 10 8 15 6 10 7 9 8 9
27 26 25 25 23 22 20 14 9 7 6 5 3 2 1 9 2 5 7 9 10 10 3 7 4 2 4 3 1 2 4 6 7 8 8 10 12 18 12 3 8 5 7 8 9
28 28 28 27 24 21 16 11 8 6 7 4 3 1 6 3 8 11 7 9 10 11 15 10 6 2 2 1 6 3 4 3 5 1 6 8 10 2 2 2 7 2 1 6 7
28 28 28 27 24 20 14 9 2 1 3 6 4 3 7 8 4 5 7 6 3 3 3 2 3 3 5 3 5 5 1 2 7 3 4 3 4 3 8 5 7 6 4 4 6
28 27 28 27 21 17 10 7 10 9 8 4 0 1 4 3 5 10 7 9 1 3 3 5 5 3 3 4 2 3 3 3 4 5 5 5 6 5 8 5 7 8 6 3 4
27 26 27 24 16 11 8 3 4 3 2 5 3 3 5 9 6 3 5 0 3 7 2 3 4 2 4 5 5 2 3 4 4 3 6 8 11 8 7 6 6 7 7 7 5
27 27 24 17 11 6 8 4 3 5 6 6 5 5 11 5 4 5 3 3 3 1 1 5 2 5 3 4 4 4 3 4 5 5 5 11 21 12 7 7 6 5 7 7 4
29 26 21 11 2 4 5 5 13 1 0 6 4 4 4 9 5 6 5 2 2 1 3 4 5 1 2 1 1 3 4 3 4 3 4 5 10 7 1 2 4 5 6 8 9
30 24 16 5 3 2 2 13 12 1 4 3 2 2 3 3 4 6 8 5 0 6 3 4 3 1 2 3 4 3 3 2 3 5 3 4 6 6 6 6 4 8 9 7 8
28 19 8 2 2 2 6 15 4 3 3 2 1 1 0 4 2 3 3 4 7 3 4 6 2 2 2 2 1 4 1 1 2 3 1 3 3 6 4 5 5 9 8 8 8
21 9 2 2 0 3 13 9 3 5 0 2 2 4 5 4 3 5 2 4 2 5 2 6 3 2 4 2 3 1 4 5 3 2 2 5 3 4 2 6 5 5 9 7 8
12 5 1 2 2 12 13 3 4 4 4 4 3 4 1 4 5 5 3 3 3 2 2 4 1 1 2 3 4 7 6 4 5 3 4 1 5 8 7 14 7 8 9 9 7
7 5 3 3 8 11 5 4 2 1 1 1 3 4 1 4 3 6 2 1 4 4 2 3 4 4 1 4 4 4 6 4 5 3 4 3 7 7 7 8 7 8 8 8 9
5 4 3 7 8 10 5 3 5 2 2 3 6 1 3 2 2 4 2 4 4 4 4 4 5 3 4 4 7 2 4 4 1 2 2 5 7 11 12 6 6 7 6 10 10
5 5 3 9 8 3 4 3 3 2 3 2 3 3 3 3 2 2 2 3 4 5 3 3 3 5 3 1 2 5 5 1 2 2 4 4 6 10 13 9 8 7 10 13 7
4 3 8 11 3 4 3 4 4 4 2 5 5 4 5 4 4 3 5 4 6 4 2 4 4 3 1 5 7 2 1 4 3 4 4 4 6 6 6 6 6 8 11 11 9
3 2 10 9 4 1 1 1 4 5 3 4 4 7 6 5 5 6 7 8 5 6 5 5 4 4 8 7 4 5 6 6 4 5 4 3 14 6 9 5 6 9 11 13 7
2 2 6 7 2 3 5 4 3 3 3 4 3 1 0 4 2 5 5 4 3 8 6 5 1 3 5 3 3 3 4 4 2 2 8 5 10 3 5 11 14 9 8 8 6
2 4 4 4 2 2 4 4 4 3 3 3 4 2 3 3 5 4 2 3 3 3 5 7 6 7 8 6 3 5 7 7 6 5 8 14 29 20 20 14 9 8 9 8 7
3 0 2 3 2 3 1 3 4 4 4 4 3 4 2 4 4 6 5 3 5 8 5 6 9 9 13 12 8 13 15 16 15 19 12 19 21 22 18 8 6 7 8 11 10
2 2 3 3 2 3 4 3 2 3 2 5 3 6 4 5 7 16 6 4 6 5 4 3 4 5 4 8 11 16 19 20 19 21 20 22 22 18 5 4 5 6 11 13 11
4 1 2 2 2 2 3 2 1 4 6 7 4 8 8 10 7 9 9 9 12 7 4 4 3 1 11 6 10 11 18 20 13 9 8 8 14 2 10 10 5 8 15 13 9
Wind_Direction
348 346 345 342 340 338 335 331 329 325 323 325 328 324 319 317 316 314 240 225 2 223 263 309 302 272 128 215 218 130 182 218 235 186 222 273 10 342 310 268 351 310 24 302 321
347 345 343 341 339 336 334 330 325 321 321 324 326 324 321 321 316 267 298 201 199 240 303 348 6 54 90 199 196 174 210 217 230 220 271 289 302 323 348 310 287 290 313 343 331
348 346 343 340 338 334 331 327 323 320 320 325 327 325 326 325 303 264 56 165 180 225 278 272 292 59 131 169 199 197 222 226 70 14 303 315 305 291 327 290 66 327 314 321 318
345 343 340 337 333 329 327 322 318 315 320 328 330 329 331 324 123 47 99 159 164 147 39 130 88 98 161 202 229 192 230 221 261 315 299 273 307 275 257 268 285 299 273 285 307
343 341 339 336 332 327 324 319 313 311 315 326 331 337 349 308 252 62 198 205 203 196 227 177 157 142 167 243 342 188 255 302 270 261 258 303 282 280 269 300 279 278 289 285 287
340 339 338 334 331 327 323 318 314 310 307 320 330 342 339 292 317 15 237 223 233 209 219 191 208 201 142 175 149 258 265 271 256 225 253 233 268 273 280 30 316 299 284 291 298
340 338 336 334 330 326 322 321 317 297 285 296 314 359 328 236 315 287 284 251 253 231 226 223 219 146 128 322 269 271 300 305 234 219 215 197 251 252 280 18 274 1 344 348 343
339 338 336 333 330 326 328 329 309 279 270 260 168 150 249 272 307 272 269 268 263 270 237 254 261 129 125 163 16 28 44 338 286 152 248 172 241 299 35 26 314 313 28 342 334
339 339 337 333 332 331 343 339 355 126 142 145 139 155 276 315 281 286 264 248 230 252 265 249 115 86 26 61 12 3 205 278 312 357 323 168 278 300 343 330 298 301 312 319 319
337 338 338 336 336 340 17 82 96 101 104 115 113 347 283 303 315 310 275 253 348 330 48 61 49 71 41 75 234 268 333 312 264 321 13 291 241 274 285 291 280 303 303 291 300
337 339 336 336 338 346 27 124 22 1 178 209 197 261 277 316 311 285 292 164 75 54 44 14 74 186 229 209 213 217 208 239 279 308 358 295 289 279 267 274 261 272 297 306 313
341 337 334 335 340 15 35 65 47 287 311 238 234 259 269 275 314 299 223 133 71 307 35 25 215 218 251 231 209 202 192 231 281 303 339 306 300 297 235 228 206 233 277 284 268
344 339 334 338 24 40 75 40 345 77 95 301 196 190 232 151 227 266 159 125 182 256 190 159 231 187 223 358 243 222 198 223 234 294 265 311 285 306 2 198 218 288 254 272 284
341 337 334 3 103 17 51 346 341 127 55 294 300 288 156 195 275 222 190 151 249 217 207 229 260 210 348 308 155 263 201 204 273 18 306 55 282 256 260 278 313 281 286 291 293
340 338 339 71 99 108 327 334 345 75 55 262 260 150 4 185 310 303 169 91 213 193 95 259 284 293 281 208 132 227 0 344 302 271 345 271 281 264 323 313 323 288 284 281 276
343 345 17 135 324 346 338 337 109 48 232 332 35 352 358 344 309 310 172 64 137 164 206 242 252 171 176 82 63 30 13 2 56 77 7 261 192 263 214 182 279 276 294 287 298
355 358 95 135 347 338 335 76 46 117 335 341 323 352 272 321 350 6 339 34 172 129 291 326 317 311 115 62 24 67 50 335 342 7 229 6 311 248 253 283 270 270 282 298 299
19 30 46 348 331 339 353 53 130 157 285 262 297 310 164 7 352 336 28 78 36 78 119 182 295 177 166 149 198 217 154 168 247 229 251 10 249 251 228 240 267 235 276 297 293
15 2 26 0 345 337 70 70 193 219 299 300 328 52 306 335 338 3 333 205 183 162 168 177 266 288 208 192 141 174 180 197 207 236 12 223 292 299 286 293 292 296 281 277 289
357 344 15 339 332 21 75 220 222 225 316 233 223 202 239 253 287 13 286 224 183 200 134 214 277 245 288 49 228 162 170 88 18 275 260 251 249 240 288 284 292 326 306 303 303
13 36 349 338 342 49 125 234 276 268 294 199 209 249 235 250 209 217 241 283 193 188 147 149 160 270 337 208 203 154 167 61 137 159 220 314 255 222 250 274 303 312 303 305 297
18 18 348 357 48 51 154 268 293 277 343 293 212 216 210 209 233 231 221 210 169 157 189 208 164 236 239 243 215 167 192 152 141 254 226 203 270 241 262 315 328 296 327 316 288
38 278 354 1 68 334 316 296 261 302 343 318 303 196 158 215 259 223 233 255 199 170 182 183 234 289 311 25 1 159 171 190 200 160 208 243 263 308 337 310 308 309 316 312 290
51 4 332 39 22 78 348 274 284 320 203 331 279 294 353 261 226 271 240 297 13 210 266 155 193 201 238 237 171 260 241 207 211 234 260 239 274 282 290 296 295 304 305 294 294
28 40 173 304 348 344 267 283 287 297 4 327 319 77 322 280 299 250 271 301 301 283 274 177 237 217 242 246 259 264 265 257 241 251 249 269 273 283 292 291 275 286 289 302 312
69 30 360 285 305 288 217 245 264 349 299 285 254 324 287 242 233 281 244 177 227 268 212 192 246 183 268 245 248 260 262 263 257 254 255 262 269 272 247 239 264 277 291 303 314
14 42 117 271 325 312 236 254 240 10 257 246 0 316 273 267 276 259 232 237 239 235 248 215 185 176 271 247 278 272 248 240 247 235 221 237 260 184 292 293 268 317 303 304 294